LA1KNX Weather Reports


time (UTC)temp
F
wind
direction
speed
knots
gust
knots
rain 1hr
in
rain 24hr
in
rain mn
in
humidity
%
barometer
mb
20260503020003 43 354 7.0 0.0 0.00 0.00 0.00 61 1018.2
20260503014502 43 354 7.0 0.0 0.00 0.00 0.00 61 1018.2
20260503013003 43 354 7.0 0.0 0.00 0.00 0.00 61 1018.2
20260503010003 43 302 2.6 0.0 0.00 0.00 0.00 61 1018.2
20260503004503 43 317 2.6 0.0 0.00 0.00 0.00 61 1018.2
20260503003004 43 317 2.6 0.0 0.00 0.00 0.00 61 1018.2
20260503001501 43 317 2.6 0.0 0.00 0.00 0.00 61 1018.2
20260503000004 44 230 2.6 0.0 0.00 0.00 0.00 61 1018.2
20260502234501 44 230 2.6 0.0 0.00 0.00 0.00 61 1018.2
20260502233002 44 230 2.6 0.0 0.00 0.00 0.00 61 1018.2
20260502231502 44 230 2.6 0.0 0.00 0.00 0.00 61 1018.2
20260502230002 44 230 2.6 0.0 0.00 0.00 0.00 61 1018.2
20260502224503 44 230 2.6 0.0 0.00 0.00 0.00 61 1018.2
20260502223004 45 230 2.6 0.0 0.00 0.00 0.00 61 1018.2
20260502221502 45 230 2.6 0.0 0.00 0.00 0.00 61 1018.2
20260502220003 45 230 2.6 0.0 0.00 0.00 0.00 61 1018.2
20260502214502 45 205 2.6 0.0 0.00 0.00 0.00 61 1018.2
20260502213002 46 205 2.6 0.0 0.00 0.00 0.00 61 1018.2
20260502211502 46 205 2.6 0.0 0.00 0.00 0.00 61 1018.2
20260502210006 46 201 1.7 0.0 0.00 0.00 0.00 61 1018.2
20260502204502 47 201 1.7 0.0 0.00 0.00 0.00 61 1018.2
20260502203002 47 201 1.7 0.0 0.00 0.00 0.00 61 1018.2
20260502201502 48 201 1.7 0.0 0.00 0.00 0.00 61 1018.2
20260502200002 48 201 1.7 0.0 0.00 0.00 0.00 61 1018.2
20260502194502 49 201 1.7 0.0 0.00 0.00 0.00 61 1018.2
20260502193002 49 201 1.7 0.0 0.00 0.00 0.00 61 1018.2
20260502191502 49 191 0.9 0.0 0.00 0.00 0.00 61 1018.2
20260502190002 50 191 0.9 0.0 0.00 0.00 0.00 61 1018.2
20260502184506 50 328 2.6 0.0 0.00 0.00 0.00 61 1018.2
20260502183002 50 328 2.6 0.0 0.00 0.00 0.00 61 1018.2
20260502163002 54 173 3.5 0.0 0.00 0.00 0.00 61 1018.2
20260502161502 54 173 3.5 0.0 0.00 0.00 0.00 61 1018.2
20260502151502 57 252 3.5 0.0 0.00 0.00 0.00 61 1018.2
20260502123004 58 166 5.2 0.0 0.00 0.00 0.00 61 1018.2
20260502121503 57 166 5.2 0.0 0.00 0.00 0.00 61 1018.2
20260502114501 57 158 4.3 0.0 0.00 0.00 0.00 61 1018.2
20260502113002 57 158 4.3 0.0 0.00 0.00 0.00 61 1018.2
20260502111503 57 149 4.3 0.0 0.00 0.00 0.00 61 1018.2
20260502110006 57 149 4.3 0.0 0.00 0.00 0.00 61 1018.2
20260502104501 57 149 4.3 0.0 0.00 0.00 0.00 61 1018.2
20260502103005 57 149 4.3 0.0 0.00 0.00 0.00 61 1018.2
20260502101501 59 149 4.3 0.0 0.00 0.00 0.00 61 1018.2
20260502071502 62 157 2.6 0.0 0.00 0.00 0.00 61 1018.2
20260502070003 60 183 2.6 0.0 0.00 0.00 0.00 61 1018.2
20260502064502 49 183 2.6 0.0 0.00 0.00 0.00 61 1018.2
20260502063002 45 183 2.6 0.0 0.00 0.00 0.00 61 1018.2
20260502061502 44 183 2.6 0.0 0.00 0.00 0.00 61 1018.2
20260502053004 42 183 2.6 0.0 0.00 0.00 0.00 61 1018.2
20260502051503 42 183 2.6 0.0 0.00 0.00 0.00 61 1018.2
20260502050003 42 183 2.6 0.0 0.00 0.00 0.00 61 1018.2
20260502044502 42 182 3.5 0.0 0.00 0.00 0.00 61 1018.2
20260502043001 42 182 3.5 0.0 0.00 0.00 0.00 61 1018.2
20260502041502 42 194 3.5 0.0 0.00 0.00 0.00 61 1018.2
20260502040003 42 194 3.5 0.0 0.00 0.00 0.00 61 1018.2
20260502034503 42 194 3.5 0.0 0.00 0.00 0.00 61 1018.2
20260502033003 42 194 3.5 0.0 0.00 0.00 0.00 61 1018.2
20260502031502 42 194 3.5 0.0 0.00 0.00 0.00 61 1018.2
20260502030003 42 194 3.5 0.0 0.00 0.00 0.00 61 1018.2
20260502024502 43 194 3.5 0.0 0.00 0.00 0.00 61 1018.2
20260502023002 43 197 3.5 0.0 0.00 0.00 0.00 61 1018.2